DW1743 Abbeville FR current weather conditions

sailwx.info

Air temperature 11.7° C
Dewpoint 8.3° C

Last reported at 2019-Jun-16 23:02 UTC.
Time now 2019-Jun-17 14:37 UTC

Location: N 49°55' E 001°57'.
View on Google Maps.

See reports from other nearby stations

  
Tides and Currents Weather Stations Pressure Air Temp Water Temp Dewpoint Dewpoint Depression Visibility Wind Speed Wind Dir Waves Ship Positions
date/time (UTC)wind fromknots sea level pressurealtimeterstation pressurevisibilityair tempwater tempwave heightnotes
2019-Jun-16 23:02 11.7
2019-Jun-16 22:47 344 11.7
2019-Jun-16 22:31 344 11.7
2019-Jun-16 21:57 12.8
2019-Jun-16 21:22 13.9
2019-Jun-16 21:17 14.4
2019-Jun-16 21:12 14.4
2019-Jun-16 21:07 14.4
2019-Jun-16 21:02 14.4
2019-Jun-16 20:57 15.0
2019-Jun-16 20:47 15.6
2019-Jun-16 20:12 16.7
2019-Jun-16 20:02 16.7
2019-Jun-16 19:52 17.2
2019-Jun-16 19:47 17.8
2019-Jun-16 19:45 344 17.2
2019-Jun-16 19:37 18.3
2019-Jun-16 19:32 18.3
2019-Jun-16 19:27 18.3
2019-Jun-16 19:22 18.9
2019-Jun-16 19:17 18.9
2019-Jun-16 19:12 18.9
2019-Jun-16 18:45 342 18.3
2019-Jun-16 18:37 342 18.3
2019-Jun-16 18:32 342 0 gusting 2 18.3
2019-Jun-16 18:27 343 0 gusting 3 18.3
2019-Jun-16 18:22 347 1 gusting 3 18.3
2019-Jun-16 18:17 351 1 gusting 3 18.3
2019-Jun-16 18:15 348 1 gusting 5 18.3
2019-Jun-16 18:07 294 1 gusting 4 18.3
2019-Jun-16 18:02 286 1 gusting 5 18.3
2019-Jun-16 18:00 277 1 gusting 5 18.3
2019-Jun-16 17:45 339 2 gusting 6 18.3
2019-Jun-16 17:37 302 2 gusting 6 18.3
2019-Jun-16 17:32 310 2 gusting 6 18.3
2019-Jun-16 17:30 302 2 gusting 6 18.3
2019-Jun-16 17:22 346 1 gusting 5 18.3
2019-Jun-16 17:17 346 2 gusting 4 18.3
2019-Jun-16 17:12 346 2 gusting 5 18.3
2019-Jun-16 17:07 354 3 gusting 6 18.3
2019-Jun-16 17:02 343 3 gusting 6 18.3
2019-Jun-16 16:57 338 3 gusting 6 18.3
2019-Jun-16 16:52 357 2 gusting 5 18.3
2019-Jun-16 16:47 359 1 gusting 5 18.3
2019-Jun-16 16:42 348 1 gusting 3 17.8
2019-Jun-16 16:37 345 2 gusting 5 17.8
2019-Jun-16 16:32 344 3 gusting 6 17.8
2019-Jun-16 16:30 337 2 gusting 6 17.8
2019-Jun-16 16:22 340 3 gusting 6 18.3
2019-Jun-16 16:17 339 3 gusting 8 18.3
2019-Jun-16 16:15 331 2 gusting 8 18.3
2019-Jun-16 16:07 328 3 gusting 7 18.9
2019-Jun-16 16:02 305 3 gusting 6 19.4
2019-Jun-16 15:57 301 3 gusting 6 19.4
2019-Jun-16 15:52 307 2 gusting 6 20.0
2019-Jun-16 15:47 311 2 gusting 5 20.6
2019-Jun-16 15:45 304 2 gusting 4 20.6
2019-Jun-16 15:37 326 0 gusting 3 21.1
2019-Jun-16 15:32 355 21.1
2019-Jun-16 15:27 235 21.1
2019-Jun-16 15:22 218 0 gusting 3 21.1
2019-Jun-16 15:17 250 1 gusting 6 21.1
2019-Jun-16 15:12 242 1 gusting 6 21.1
2019-Jun-16 15:07 219 0 gusting 4 21.1
2019-Jun-16 14:46 265 2 gusting 6 20.6
2019-Jun-16 14:30 190 1 gusting 5 20.0
2019-Jun-16 14:27 266 0 gusting 3 20.6
2019-Jun-16 14:22 270 0 gusting 3 20.0
2019-Jun-16 14:17 271 1 gusting 3 20.0
2019-Jun-16 14:15 269 1 gusting 6 20.0
2019-Jun-16 14:07 258 2 gusting 6 20.0
2019-Jun-16 14:02 252 1 gusting 6 20.0
2019-Jun-16 14:00 246 20.0
2019-Jun-16 13:52 234 2 gusting 7 20.0
2019-Jun-16 13:47 236 2 gusting 7 20.0
2019-Jun-16 13:42 216 3 gusting 10 20.6
2019-Jun-16 13:37 201 4 gusting 10 20.6
2019-Jun-16 13:32 197 3 gusting 10 21.1
2019-Jun-16 13:27 208 2 gusting 7 21.7
2019-Jun-16 13:22 212 2 gusting 7 21.7
2019-Jun-16 13:17 215 2 gusting 7 21.7
2019-Jun-16 13:12 206 3 gusting 7 21.7
2019-Jun-16 13:07 213 3 gusting 7 21.7
2019-Jun-16 13:02 215 3 gusting 11 21.7
2019-Jun-16 13:00 225 0 gusting 10 21.7
2019-Jun-16 12:52 192 5 gusting 11 21.7
2019-Jun-16 12:31 220 4 gusting 8 21.1
2019-Jun-16 12:15 224 0 gusting 6 20.6
2019-Jun-16 12:00 215 2 gusting 6 20.6
2019-Jun-16 11:45 199 19.4
2019-Jun-16 11:30 198 0 gusting 3 19.4
2019-Jun-16 11:27 196 2 gusting 6 20.0
2019-Jun-16 11:22 233 3 gusting 6 20.0
2019-Jun-16 11:17 257 3 gusting 6 19.4
2019-Jun-16 11:15 245 2 gusting 6 18.9
2019-Jun-16 11:07 271 2 gusting 7 18.3
2019-Jun-16 11:02 266 3 gusting 8 18.3
2019-Jun-16 10:45 267 3 gusting 8 20.0
2019-Jun-16 10:30 200 1 gusting 6 20.0
2019-Jun-16 09:52 219 2 gusting 9 19.4
2019-Jun-16 09:47 239 1 gusting 9 19.4
2019-Jun-16 09:37 197 3 gusting 10 19.4
2019-Jun-16 09:32 195 2 gusting 8 19.4
2019-Jun-16 09:30 209 1 gusting 8 19.4
2019-Jun-16 09:22 215 2 gusting 9 19.4
2019-Jun-16 09:17 212 2 gusting 7 19.4
2019-Jun-16 09:12 201 2 gusting 8 19.4
2019-Jun-16 09:07 199 2 gusting 8 19.4
2019-Jun-16 08:17 192 18.3
2019-Jun-16 08:01 202 2 gusting 8 17.2
2019-Jun-16 07:45 240 17.2
2019-Jun-16 07:32 221 1 gusting 9 16.7
2019-Jun-16 07:27 245 1 gusting 6 16.7
2019-Jun-16 07:22 225 1 gusting 6 16.7
2019-Jun-16 07:15 198 1 gusting 8 16.7
2019-Jun-16 07:00 243 16.1
2019-Jun-16 06:45 286 16.1
2019-Jun-16 06:27 252 0 gusting 7 16.1
2019-Jun-16 06:22 241 16.1
2019-Jun-16 06:15 252 16.1
2019-Jun-16 05:47 14.4
2019-Jun-16 05:42 14.4
2019-Jun-16 05:37 14.4
2019-Jun-16 05:32 14.4
2019-Jun-16 05:30 257 13.9
2019-Jun-16 05:22 264 0 gusting 2 14.4
2019-Jun-16 05:17 260 0 gusting 6 14.4
2019-Jun-16 05:12 254 0 gusting 6 14.4
2019-Jun-16 05:07 272 1 gusting 6 14.4
2019-Jun-16 05:02 276 1 gusting 6 14.4
2019-Jun-16 05:00 284 2 gusting 5 14.4
2019-Jun-16 04:52 228 14.4
2019-Jun-16 04:47 229 14.4
2019-Jun-16 04:45 244 13.9
2019-Jun-16 04:37 245 14.4
2019-Jun-16 04:32 245 14.4
2019-Jun-16 04:17 244 13.9
2019-Jun-16 04:01 246 13.9
2019-Jun-16 03:57 247 13.9
2019-Jun-16 03:52 13.9
2019-Jun-16 03:47 248 13.9
2019-Jun-16 03:42 246 13.9
2019-Jun-16 03:37 231 13.9
2019-Jun-16 03:32 197 13.3
2019-Jun-16 03:27 195 13.3
2019-Jun-16 03:22 13.3
2019-Jun-16 03:17 13.3
2019-Jun-16 03:12 13.3
2019-Jun-16 03:07 194 13.3
2019-Jun-16 03:02 194 13.3
2019-Jun-16 02:45 194 12.8
2019-Jun-16 02:30 194 12.8
2019-Jun-16 02:15 194 13.3
2019-Jun-16 02:00 194 13.3
2019-Jun-16 01:52 194 13.3
2019-Jun-16 01:47 194 13.3
2019-Jun-16 01:42 194 13.3
2019-Jun-16 01:37 194 13.3
2019-Jun-16 01:32 194 13.3
2019-Jun-16 01:15 194 13.3
2019-Jun-16 00:57 195 13.9
2019-Jun-16 00:37 202 13.9
2019-Jun-16 00:32 197 13.9
2019-Jun-16 00:27 196 0 gusting 6 13.9
2019-Jun-16 00:22 198 13.9
2019-Jun-16 00:17 208 13.9
2019-Jun-16 00:12 200 13.9
2019-Jun-16 00:07 197 13.9
2019-Jun-16 00:02 200 13.9
2019-Jun-15 23:57 200 13.9
2019-Jun-15 23:52 196 13.9
2019-Jun-15 23:47 196 13.9
2019-Jun-15 23:42 198 13.9
2019-Jun-15 23:37 203 0 gusting 4 13.9
2019-Jun-15 23:32 203 0 gusting 4 13.3
2019-Jun-15 23:27 203 13.3
2019-Jun-15 23:22 203 0 gusting 3 13.3
2019-Jun-15 23:17 203 13.3
2019-Jun-15 23:15 203 13.3
2019-Jun-15 23:01 202 13.3
2019-Jun-15 22:52 200 13.3
2019-Jun-15 22:47 200 13.9
2019-Jun-15 22:30 201 13.9
2019-Jun-15 22:15 201 14.4
2019-Jun-15 22:07 14.4
2019-Jun-15 22:02 15.0
2019-Jun-15 21:27 15.6
2019-Jun-15 21:22 15.6
2019-Jun-15 21:17 15.6
2019-Jun-15 21:15 201 15.6
2019-Jun-15 21:07 201 15.6
2019-Jun-15 21:02 201 16.1
2019-Jun-15 20:57 200 16.1
2019-Jun-15 20:52 200 16.1
2019-Jun-15 20:48 200 16.1
2019-Jun-15 20:42 16.7
2019-Jun-15 20:37 16.7
2019-Jun-15 20:32 16.7
2019-Jun-15 20:27 16.7
2019-Jun-15 20:22 16.7
2019-Jun-15 20:17 16.7
2019-Jun-15 20:12 201 17.2
2019-Jun-15 20:07 201 17.2
2019-Jun-15 20:02 201 17.2
2019-Jun-15 19:57 203 17.2
2019-Jun-15 19:52 204 17.2
2019-Jun-15 19:47 210 17.2
2019-Jun-15 19:42 210 17.8
2019-Jun-15 19:37 211 17.8
2019-Jun-15 19:32 211 17.8
2019-Jun-15 19:30 211 17.8
2019-Jun-15 19:15 211 17.8
2019-Jun-15 19:00 202 18.3
2019-Jun-15 18:47 208 1 gusting 7 18.9
2019-Jun-15 18:30 225 0 gusting 6 18.9
2019-Jun-15 18:27 217 0 gusting 5 19.4
2019-Jun-15 18:22 222 0 gusting 5 19.4
2019-Jun-15 18:17 231 0 gusting 5 19.4
2019-Jun-15 18:15 238 18.9
2019-Jun-15 18:07 213 1 gusting 6 19.4
2019-Jun-15 18:02 198 1 gusting 6 19.4
2019-Jun-15 18:00 200 1 gusting 7 19.4
2019-Jun-15 17:17 271 0 gusting 6 19.4
2019-Jun-15 17:01 253 0 gusting 5 19.4
2019-Jun-15 16:46 176 4 gusting 8 19.4
2019-Jun-15 16:31 241 1 gusting 10 20.0
2019-Jun-15 16:27 225 2 gusting 7 20.0
2019-Jun-15 16:17 210 1 gusting 9 20.0
2019-Jun-15 16:12 219 1 gusting 5 20.0
2019-Jun-15 16:07 229 3 gusting 7 20.0
2019-Jun-15 16:02 245 4 gusting 12 20.0
2019-Jun-15 15:57 247 4 gusting 12 20.0
2019-Jun-15 15:52 247 3 gusting 10 20.0
2019-Jun-15 15:47 253 4 gusting 8 20.0
2019-Jun-15 15:32 279 2 gusting 6 20.6
2019-Jun-15 15:17 223 0 gusting 7 20.6
2019-Jun-15 15:00 254 1 gusting 8 21.1
2019-Jun-15 14:46 258 2 gusting 9 21.1
2019-Jun-15 14:30 273 1 gusting 7 20.6
2019-Jun-15 14:27 256 1 gusting 6 20.6
2019-Jun-15 14:17 222 1 gusting 6 20.6
2019-Jun-15 14:15 202 0 gusting 6 20.6
2019-Jun-15 14:07 256 1 gusting 6 20.6
2019-Jun-15 14:02 238 1 gusting 5 20.6